OBJECT AU, 57208

Orbit data source: Space-Track

You're viewing an Uncataloged Satellite

Recently launched and/or uncataloged satellites may have evolving metadata. Metadata may include but not limited to: Owner, Maufacturer, Bus, Motor, and Mission.

OBJECT AU, 57208 is a satellite in SSO that was launched on Tue, 27 Jun 2023 UTC via a SOYUZ-2-1B launch vehicle from the Vostochny Cosmodrome (VOSTO). Unknown objects in Earth's orbit typically refer to objects detected orbiting the Earth but have not yet been identified or cataloged. These objects could be anything from previously untracked satellites, spent rocket stages, debris from satellite collisions, or even natural meteoroids temporarily captured by Earth's gravity.

Loading next visibility...
Identifier
57208, 2023-091AU
Orbit
SSO
Country
Flag of TBDTBD
Related business
Manufacturer
Sputniks
Mission
Operational Commercial Communications
Bus & Motor
CUBESAT 3U?, Unknown motor
Mass
3 kg wet, 3 kg dry
Launch date (UTC)
2023-06-27 (2 years ago)
Launch vehicle
SOYUZ-2-1B
Launch site
Vostochny Cosmodrome (VOSTO)
Object type
Unknown
Shape & HBR
Box, 0.1 m
Radar Cross Section
0.035 m², Small (<0.1 m²)

Expand to show TLE details & history
Last TLE update: 23 hours ago

TLE from 23 hours ago
0 OBJECT AU
1 57208U 23091AU  25305.65120166  .00017017  00000-0  60383-3 0  9998
2 57208  97.5429   7.3103 0008981 149.7251 210.4510 15.29095071129902
Epoch: 2025-11-01T15:37Z
TLE epoch observation values (Epoch: 2025-11-01T15:37:43.823Z)
Latitude
0.00006°
Longitude
91.69947°
Altitude
486.926 km
Speed
7.619 km/s
True Right ascension
00h 29m 14s
True Declination
0° 00' 00"
Sunlit
Object was in full shadow at epoch
Visualization orbit readout
Latitude
Unknown
Longitude
Unknown
Altitude
Unknown
Speed
Unknown
Apparent Right ascension
Unknown
Apparent Declination
Unknown
Sunlit
N/A
Visualization observer readout
Local Sidereal Time
10:41:56
Azimuth
Unknown
Elevation
Unknown
Doppler factor
Unknown
Orbital elements
Apogee altitude
481.631 km
Perigee altitude
469.321 km
Semi-major axis
6,853.613 km
Eccentricity
0.0009
Inclination
97.5429°
RAAN
7.3103°
Arg. of periapsis
149.7251°
True anomaly
210.39889°
Mean anomaly
210.451°
Eccentric anomaly
210.42494°
Mean motion
3.82529 °/min
Orbital period
94.11 mins
BSTAR
0.00060383
Loading maneuver chart data...
Computing Atmospheric mass density...
Loading historical data...
Loading historical data...
Loading historical data...
Loading historical data...
Loading historical data...
Loading historical data...
Loading historical data...

Documentation

Showing up to 5 results
|